Regional Weather Roundup
Issued by NWS Wilmington, NC

Home | Current Version | Previous Version | Text Only | Print | Product List | Glossary On
Versions: 1 2 3 4 5 6 7 8 9 10 11 12 13 14 15 16 17 18 19 20 21 22 23 24 25 26 27 28 29 30 31 32 33 34 35 36 37 38 39 40 41 42 43 44 45 46 47 48 49 50
000
ASUS42 KILM 201613
RWRILM
RWRILM
REGIONAL HOURLY WEATHER ROUNDUP
NATIONAL WEATHER SERVICE WILMINGTON NC
1100 AM EST FRI JAN 20 2017

NOTE: "FAIR" INDICATES FEW OR NO CLOUDS BELOW 12,000 FEET WITH NO
SIGNIFICANT WEATHER AND/OR OBSTRUCTIONS TO VISIBILITY.

...............WFO WILMINGTON COUNTY WARNING AREA...............

......COASTAL NC AND SC COUNTIES......

CITY           SKY/WX    TMP DP  RH WIND       PRES   REMARKS
WILMINGTON     CLOUDY    67  59  75 SE3       29.92F
N MYRTLE BEACH CLOUDY    63  57  81 SE3       29.91F
MYRTLE BEACH   CLOUDY    66  57  72 S8        29.94S

......INLAND NC AND SC COUNTIES.......

CITY           SKY/WX    TMP DP  RH WIND       PRES   REMARKS
LUMBERTON      CLOUDY    61  54  77 S5        29.90F
ELIZABETHTOWN  CLOUDY    60  55  81 SE3       29.91F
WHITEVILLE     CLOUDY    62  55  77 CALM      29.92S
FLORENCE       PTSUNNY   67  59  75 SW8       29.90F
DARLINGTON     CLOUDY    64  58  80 VRB6      29.91F
KINGSTREE      PTSUNNY   68  59  73 SW8       29.90F
HARTSVILLE     CLOUDY    61  55  82 SW5       29.90F
BENNETTSVILLE  CLOUDY    64  57  77 SW6       29.90F
CONWAY         PTSUNNY   64  57  77 CALM      29.91F
GEORGETOWN     PTSUNNY   70  63  78 S8        29.92F
MARION         CLOUDY    64  55  72 S6        29.91F

....................REST OF NORTH CAROLINA......................

.........EASTERN NC.........

CITY           SKY/WX    TMP DP  RH WIND       PRES   REMARKS
CAPE HATTERAS  CLOUDY    64  51  62 E9        29.95F
JACKSONVILLE   CLOUDY    57  52  83 SE5       29.93F
MOREHEAD CITY  MOSUNNY   67  59  75 E5        29.93F
KENANSVILLE    CLOUDY    54  50  87 SE5       29.93S
NEW BERN       CLOUDY    56  49  77 E5        29.94F
ELIZABETH CITY CLOUDY    51  44  77 E10       29.95F

.........CENTRAL NC.........

CITY           SKY/WX    TMP DP  RH WIND       PRES   REMARKS
RALEIGH DURHAM CLOUDY    51  49  92 N3        29.93R FOG
ROCKY MOUNT    CLOUDY    50  49  96 VRB3      29.92F
ROANOKE RAPIDS NOT AVBL
FAYETTEVILLE   CLOUDY    60  52  74 S8        29.90F
HOFFMAN        PTSUNNY   60  55  84 S3        29.90F

.........WESTERN NC.........

CITY           SKY/WX    TMP DP  RH WIND       PRES   REMARKS
CHARLOTTE      LGT RAIN  56  53  90 CALM      29.91R
GREENSBORO     DRZL/FOG  49  49 100 N5        29.91R VSB 3/4
HICKORY        NOT AVBL
BOONE          NOT AVBL
ASHEVILLE      NOT AVBL

.....................REST OF SOUTH CAROLINA.....................

.........EASTERN SC.........

CITY           SKY/WX    TMP DP  RH WIND       PRES   REMARKS
CHARLESTON     MOSUNNY   74  59  59 SW10G23   29.91F
BEAUFORT MCAS  PTSUNNY   73  63  70 SW15      29.91F
HILTON HEAD    SUNNY     73  64  73 S12       29.93F

.........CENTRAL SC.........

CITY           SKY/WX    TMP DP  RH WIND       PRES   REMARKS
COLUMBIA       CLOUDY    67  59  75 SW9       29.89S
ORANGEBURG     PTSUNNY   69  59  70 SW13      29.90S
SUMTER SHAW    PTSUNNY   68  57  68 SW12      29.88S

.........WESTERN SC.........

CITY           SKY/WX    TMP DP  RH WIND       PRES   REMARKS
GREENVILLE     NOT AVBL
ROCK HILL      CLOUDY    58  54  86 SW6       29.90R
ANDERSON       CLOUDY    58  57  97 CALM      29.89R FOG
CLEMSON        NOT AVBL
GREENWOOD      CLOUDY    66  59  78 SW8       29.90R


...................COASTAL AND OFFSHORE REPORTS..................

................LOCAL PIERS AND NC RESERVE................


STATION/POSITION TIME  SKY/WX   TEMP    WIND        PRES    VSBY
                                AIR SEA DIR/SP/G
                 (UTC)          (F)     (DEG/KT/KT) (MB)    (MI)
JOHNY MRCER PIER 1542            56 55   30/  9/ 10 1012.0F
NC RESRV MASNBRO 1445            59      70/  5     1012.0
OCEAN CREST PIER NOT AVBL
SPRINGMAID  PIER NOT AVBL


................COASTAL AND OFFSHORE BUOYS................


STATION/POSITION TIME  SKY/WX   TEMP    WIND        PRES    VSBY
                                AIR SEA DIR/SP/G
                 (UTC)          (F)     (DEG/KT/KT) (MB)    (MI)
DIMNDSHOAL 41025 1550            68 76  170/ 12/ 16 1014.1F
WVE H/P(F/S)=  5/12 SWL H/P/D(F/S/D)=  5/ 60/12

CAPE LOOKOUT     1500            66     130/  8/  8 1013.4F
ONSLOW BAY 41036 NOT AVBL
ONSLOW BAY 41064 1508            65 65  150/  6/  8 1013.5F
ONSLOW BAY 41159 1543               65                N/A
WVE H/P(F/S)=  4/11 SWL H/P/D(F/S/D)=  3/100/11

MASNBO INL 41110 1559               54                N/A
WVE H/P(F/S)=  2/13 SWL H/P/D(F/S/D)=  2/100/13

WILM HARBR 41108 1556               56                N/A
WVE H/P(F/S)=  2/13

27SE WRITB 41037 1508            72 71  180/ 10/ 14 1012.7R
FRYING PAN 41013 1550            71 71  220/ 10/ 12 1013.1F
WVE H/P(F/S)=  3/ 8 SWL H/P/D(F/S/D)=  2/ 90/ 8

SUNST NRSH 41024 1508            56 54   80/  4/  6 1012.9R
CAPRS NRSH 41029 1508            60 55  180/  4/  6 1013.1R
EDISTO     41004 NOT AVBL


..........OFFSHORE BUOYS BEYOND 100 NM OFFSHORE...........
.....IN A TRIANGLE---HAT TO BERMUDA TO BAHAMAS TO HAT.....


STATION/POSITION TIME  SKY/WX   TEMP    WIND        PRES    VSBY
                                AIR SEA DIR/SP/G
                 (UTC)          (F)     (DEG/KT/KT) (MB)    (MI)
150E HAT   41001 NOT AVBL
W BERMUDA  41048 1450            66 70  320/ 12/ 14 1015.6
WVE H/P(F/S)=  9/ 9 SWL H/P/D(F/S/D)=  8/ 20/ 9

ATLANTIC S 41049 1550            69 73  340/ 12/ 16 1013.2F
WVE H/P(F/S)=  8/11 SWL H/P/D(F/S/D)=  7/290/11

E BAHAMAS  41046 1550            76 78  330/  8/ 10 1017.5F
WVE H/P(F/S)=  4/ 9 SWL H/P/D(F/S/D)=  3/ 9

NE BAHAMAS 41047 1550            71 74  310/  6/  8 1016.8F
WVE H/P(F/S)=  5/11 SWL H/P/D(F/S/D)=  5/11

120E CANVRL41010 NOT AVBL

END



USA.gov is the U.S. government's official web portal to all federal, state and local government web resources and services.